CAPE
960 1668 1930 1973 2019 1824 1797 1754 1969 2065 1887 2261 2665 2648 2658 2962 2869 2436 2490 2389 2062 1727 1752 2052 2047 1775 2703 2064 2235 2065 1713 3091 2328
604 1015 1603 1901 1873 2069 2092 1999 2020 2206 2319 2314 2376 2472 2595 2682 2705 2684 2615 2945 2370 2278 2630 1988 2039 2328 2242 1587 1547 2359 2603 2594 1759
490 518 811 1443 1835 1855 2096 2169 2063 2103 2252 2324 2434 2527 2559 2610 2702 2770 2779 2700 2737 2667 2392 2416 2494 2081 2124 1855 1863 1908 2784 1966 2092
403 470 463 516 794 1284 1553 1936 2110 2123 2181 2243 2266 2308 2473 2558 2589 2665 2761 2718 2684 2715 2610 2562 2533 2621 2569 2303 1904 2127 3037 2675 2543
25 164 272 266 254 366 540 843 841 1348 1685 1756 1939 2388 2395 2509 2598 2577 2472 2538 2452 2472 2533 2498 2520 2562 2704 2519 2216 2498 2455 1923 1949
0 0 0 2 85 170 258 272 210 220 393 520 1075 773 378 1603 2611 2558 2631 2634 2556 2559 2617 2623 2477 2485 2643 2740 2488 2308 2519 2546 2282
0 0 0 0 0 0 0 29 213 550 540 431 738 798 639 386 576 468 358 581 875 1600 2198 2855 2847 2883 2823 2697 2745 2524 2515 2773 2328
0 0 0 0 0 0 0 0 0 5 108 410 558 621 571 406 343 361 164 192 188 337 305 442 1148 2021 2456 3325 2752 2728 2732 2509 2443
0 0 0 0 0 0 0 0 0 0 1 29 175 508 567 678 398 363 347 203 187 227 274 281 351 873 1733 2343 2644 2441 1509 1639 2372
0 0 0 0 0 0 1 0 1 0 1 19 118 390 541 706 713 600 584 519 420 503 380 212 287 388 640 1674 2426 2359 1163 589 2122
0 0 1 1 0 3 6 5 2 5 3 24 90 340 546 725 792 824 746 748 757 674 657 640 724 721 625 1370 1862 1904 1709 300 1874
0 1 6 15 11 7 19 26 35 28 9 17 108 145 337 323 412 809 851 832 1014 1029 772 705 686 746 1387 1800 2434 1933 956 282 1845
0 9 14 13 10 14 17 15 15 36 44 13 37 145 169 192 283 654 998 970 1074 1165 1123 759 557 669 1205 1186 1842 2207 952 56 2006
4 7 9 11 9 8 11 12 18 17 36 36 24 24 38 75 196 401 819 1042 1158 1212 1214 1135 978 751 683 794 1625 2869 982 1 2189
0 2 6 11 12 19 12 12 10 10 15 32 51 35 31 38 106 270 474 1083 1289 1148 1513 1213 1129 925 719 457 863 1694 1262 0 38
0 2 8 12 19 13 21 22 27 13 26 23 19 27 27 28 20 165 488 1289 1581 996 1104 1514 921 607 331 196 278 523 1 1 1
0 5 6 10 12 8 10 12 18 16 16 25 36 28 30 36 21 131 508 1137 779 638 1093 882 1513 1014 951 440 175 159 73 3 7
4 10 10 8 12 11 11 17 10 7 12 16 22 31 30 39 51 106 501 1402 759 675 859 643 1251 1299 744 495 232 263 86 53 8
5 10 8 9 12 11 9 10 10 8 7 4 6 12 20 38 31 611 874 1215 865 291 381 152 1 2 66 206 123 0 0 2 0
4 17 10 9 13 11 12 13 8 6 7 6 5 6 8 69 69 360 1022 1370 1146 660 235 110 0 2 0 1 6 0 1 0 0
CIN
-258 -189 -166 -184 -144 -154 -167 -157 -121 -104 -116 -78 -39 -23 -16 -8 -9 -1 -0 -1 -0 -0 -0 -3 -1 -0 -0 -0 -1 -0 -0 -1 -4
-305 -268 -199 -154 -155 -136 -111 -118 -99 -67 -43 -44 -36 -24 -11 -5 -3 -3 -0 -0 -0 -0 -0 -0 -0 -0 -2 -0 -3 -0 -0 -0 -0
-284 -305 -283 -183 -124 -124 -96 -81 -76 -60 -36 -22 -7 -3 -4 -6 -3 -0 -0 -0 -0 -0 -0 -0 -6 -6 -0 -1 -0 -1 -0 -0 -0
-278 -276 -298 -307 -267 -177 -127 -59 -42 -38 -14 -4 -4 -3 -1 -2 -5 -9 -8 -0 -0 -0 -0 -0 -2 -3 -12 -9 -1 -0 -0 -0 -0
-426 -324 -283 -294 -313 -300 -276 -187 -189 -77 -41 -30 -4 -0 -0 -0 -1 -4 -7 -32 -35 -13 -2 -6 -2 -0 -0 -0 -2 -0 -0 -0 -0
-0 -0 -0 -364 -315 -260 -211 -240 -293 -273 -195 -156 -54 -111 -233 -36 -0 -0 -0 -0 -3 -1 -5 -5 -10 -4 -1 -0 -0 -0 -0 -0 -0
-0 -0 -0 -0 -0 -0 -0 -178 -118 -35 -59 -110 -66 -63 -75 -121 -83 -125 -138 -95 -97 -19 -1 -0 -2 -2 -0 -0 -0 -0 -0 -0 -0
-0 -0 -0 -0 -0 -0 -0 -0 -0 -50 -121 -42 -37 -25 -56 -94 -87 -88 -153 -165 -197 -154 -173 -132 -50 -19 -3 -0 -0 -0 -0 -0 -0
-0 -0 -0 -0 -0 -0 -0 -0 -0 -0 -68 -180 -61 -17 -9 -5 -20 -38 -62 -125 -165 -143 -161 -184 -164 -120 -22 -6 -1 -1 -26 -16 -0
-0 -0 -0 -0 -0 -0 -0 -0 -0 -0 -85 -247 -56 -0 -0 -0 -2 -1 -3 -23 -36 -44 -98 -157 -184 -177 -129 -28 -21 -31 -93 -152 -1
-0 -0 -0 -0 -0 -0 -0 -0 -0 -0 -0 -244 -77 -0 -0 -0 -0 -4 -3 -1 -0 -21 -29 -51 -65 -100 -133 -59 -40 -68 -94 -263 -1
-0 -0 -0 -0 -0 -0 -0 -0 -0 -0 -0 -23 -103 -14 -0 -5 -8 -0 -0 -7 -0 -0 -3 -27 -38 -64 -31 -17 -4 -46 -173 -287 -4
-0 -0 -0 -0 -0 -0 -0 -0 -0 -0 -0 -0 -3 -91 -8 -7 -10 -1 -0 -0 -3 -0 -0 -3 -30 -23 -19 -36 -8 -10 -183 -460 -5
-0 -0 -0 -0 -0 -0 -0 -0 -0 -0 -0 -0 -0 -0 -32 -85 -26 -11 -1 -0 -0 -0 -0 -0 -0 -1 -23 -49 -8 -0 -128 -48 -2
-0 -0 -0 -0 -0 -0 -0 -0 -1 -2 -1 -0 -0 -0 -0 -115 -54 -20 -6 -0 -0 -0 -0 -0 -0 -0 -0 -35 -12 -0 -29 -0 -44
-0 -0 -0 -0 -0 -0 -0 -0 -0 -0 -0 -0 -0 -0 -0 -0 -12 -8 -9 -0 -0 -0 -0 -0 -0 -0 -0 -2 -15 -25 -0 -0 -0
-0 -0 -0 -0 -0 -0 -0 -0 -1 -0 -0 -0 -0 -0 -0 -0 -0 -14 -2 -0 -0 -0 -0 -0 -0 -0 -0 -0 -8 -17 -33 -0 -0
-0 -0 -0 -0 -0 -0 -0 -0 -0 -0 -0 -0 -0 -0 -0 -0 -0 -6 -0 -0 -0 -0 -0 -11 -0 -0 -0 -0 -56 -10 -72 -136 -0
-0 -0 -0 -0 -0 -0 -0 -0 -0 -0 -0 -0 -0 -0 -1 -0 -2 -0 -0 -0 -0 -32 -69 -195 -0 -0 -32 -60 -136 -0 -0 -0 -0
-1 -0 -0 -0 -0 -0 -0 -0 -0 -0 -0 -0 -0 -0 -0 -0 -0 -0 -0 -0 -0 -0 -105 -217 -0 -0 -0 -0 -4 -0 -0 -0 -0
Wind_Speed
17 18 18 18 15 7 2 4 9 11 12 13 15 16 17 15 16 12 13 13 11 10 10 7 9 9 10 12 12 10 12 7 7
18 18 18 17 16 15 8 2 4 7 9 11 13 15 14 14 14 16 13 13 12 11 12 10 10 9 9 11 13 12 11 8 11
16 17 18 17 16 15 13 10 3 3 7 9 10 12 12 12 13 14 14 13 13 13 12 12 12 12 12 13 13 13 12 11 12
14 14 15 15 15 15 15 13 10 4 3 6 7 9 10 11 12 14 14 14 14 14 13 13 13 13 13 14 14 13 11 13 12
11 12 12 12 13 14 13 11 13 14 12 11 10 7 8 11 12 13 14 14 14 14 14 13 14 13 14 14 14 13 14 16 13
7 8 10 10 11 11 12 9 8 9 11 11 9 8 8 12 10 9 11 11 10 11 13 13 13 14 15 15 15 16 16 15 15
6 7 8 9 10 10 10 11 10 6 5 6 9 6 8 8 8 9 10 12 11 13 11 12 12 13 15 15 16 16 17 16 17
6 7 9 10 11 11 10 10 10 11 11 11 9 7 6 9 12 11 10 10 11 12 12 14 16 13 14 12 14 14 18 18 18
11 9 10 12 12 13 12 12 11 12 11 11 11 9 9 6 7 8 9 9 10 12 12 14 13 13 15 14 11 15 14 17 16
13 12 12 14 14 13 13 13 13 13 13 13 11 10 9 8 7 8 9 9 10 12 12 13 15 15 15 17 15 14 14 17 18
11 12 14 15 14 14 14 14 14 14 13 13 12 11 9 8 9 9 9 9 11 11 10 11 12 15 16 15 15 14 16 17 19
12 14 14 13 14 16 16 15 14 13 14 13 12 12 10 10 10 11 10 10 11 10 10 11 11 12 16 16 16 13 16 14 18
15 15 13 14 14 15 15 15 15 14 14 15 14 13 12 12 12 11 12 11 12 11 9 12 10 12 14 16 18 15 16 17 15
13 12 14 15 14 12 12 12 11 12 15 15 15 15 15 15 14 12 13 12 11 10 11 11 11 12 13 15 16 17 15 18 17
13 12 13 14 13 13 13 11 9 11 15 16 15 15 17 16 15 13 11 12 11 11 9 11 11 10 11 11 11 13 10 17 21
12 13 12 13 13 14 13 11 9 13 13 13 13 13 18 17 15 15 14 12 11 10 8 9 10 9 8 8 6 4 5 7 9
11 10 10 10 12 12 13 13 12 12 13 14 13 13 15 16 15 14 13 10 12 8 6 7 8 7 9 5 6 7 5 3 3
11 11 11 11 12 12 14 14 12 12 12 13 12 12 13 15 13 14 11 10 11 9 8 5 7 8 7 7 4 6 8 7 7
10 11 11 11 12 12 13 13 14 12 12 11 11 11 11 10 11 10 9 9 10 12 12 8 9 13 5 6 2 4 5 4 5
8 10 11 12 13 12 13 13 13 11 11 11 10 10 12 10 11 9 10 7 7 11 8 10 11 9 7 6 7 5 4 4 8
Wind_Direction
30 30 33 33 24 41 23 228 205 209 205 212 211 214 216 215 218 224 221 221 225 235 230 246 242 240 226 248 257 242 236 216 223
35 31 30 30 34 17 14 3 226 219 215 210 222 213 219 221 220 228 235 236 230 223 233 248 255 252 240 242 251 244 240 238 240
37 38 34 30 28 28 17 5 29 253 220 224 230 226 217 220 223 227 239 245 239 248 252 239 240 232 231 242 240 247 244 230 233
37 33 35 36 30 27 21 17 14 11 287 235 234 234 233 227 224 222 224 233 238 238 239 239 245 248 238 224 235 237 239 245 249
34 38 27 26 28 30 29 25 14 13 18 10 351 330 256 245 244 244 232 220 227 236 238 231 239 242 246 242 232 232 227 232 236
34 15 23 25 26 25 17 28 6 348 330 321 310 308 343 324 277 250 261 261 257 251 243 239 236 240 240 244 237 231 233 230 229
18 19 18 19 14 16 7 3 353 337 297 299 315 296 283 284 295 316 313 311 315 310 287 261 248 244 243 241 241 235 230 226 231
339 352 356 357 351 348 344 347 342 341 333 329 331 314 261 241 252 272 275 273 276 274 263 276 282 262 256 251 248 241 231 231 230
332 324 333 334 331 326 325 329 325 324 325 328 315 306 302 288 269 268 271 278 276 265 266 266 257 262 260 251 244 255 230 234 228
324 327 329 327 324 320 318 314 313 309 314 315 314 305 299 295 288 280 275 277 272 265 265 263 264 263 260 256 247 234 230 219 233
336 330 323 319 315 312 306 308 306 307 304 301 302 303 299 302 296 282 278 272 272 277 275 272 269 262 261 262 253 234 214 218 231
325 318 315 315 317 314 315 302 296 297 299 299 292 293 299 307 308 295 287 282 276 266 281 287 282 272 271 261 258 231 216 205 231
323 322 326 319 315 307 312 325 319 310 300 297 296 296 304 301 299 296 291 287 286 280 277 270 272 286 274 263 264 246 206 199 229
334 332 311 312 315 310 319 316 316 310 297 295 303 302 297 295 294 292 285 282 282 277 277 285 285 286 281 282 278 256 208 196 228
331 324 325 324 322 319 321 319 314 306 306 314 315 301 292 285 288 288 289 285 284 275 272 269 278 284 282 273 292 275 226 200 212
333 334 332 327 321 315 311 313 311 305 298 295 293 292 287 283 282 281 280 276 275 277 270 278 286 293 287 292 277 275 351 229 218
331 337 329 323 322 322 319 314 318 309 307 301 289 282 286 281 274 274 275 280 269 257 254 270 287 278 284 313 314 286 161 171 217
339 334 336 331 329 323 318 325 312 308 313 312 296 289 287 278 268 264 270 264 269 286 267 287 290 282 292 301 340 326 302 201 196
344 330 333 334 329 325 322 318 323 321 317 317 313 306 289 298 302 288 271 274 269 241 243 272 258 257 264 283 341 350 299 223 237
327 328 339 338 330 324 325 325 320 313 310 309 303 301 306 303 292 291 293 266 270 270 228 234 242 230 231 241 296 307 268 255 264